Location: Piotrkow Trybunalski
(51.4000°N, 19.6830°E)
Time: 01:27:42
(UTC+01:00)

A-11 Canister half - Pass Details

Date: 18 December 2023
Orbit: 1512 x 1687 km, 47.2° (Epoch: 23 February)

Event Time Altitude Azimuth Distance (km) Brightness Sun altitude
Rises 19:33:35 0° 210° (SSW) 4,649 11.8 -36.0°
Reaches altitude 10° 19:36:56 10° 202° (SSW) 3,680 11.1 -36.5°
Enters shadow 19:40:37 23° 184° (S) 2,787 10.2 -37.1°
